Time,TemperatureF,DewpointF,PressureIn,WindDirection,WindDirectionDegrees,WindSpeedMPH,WindSpeedGustMPH,Humidity,HourlyPrecipIn,Conditions,Clouds,dailyrainin,SolarRadiationWatts/m^2,SoftwareType,DateUTC
2013-07-18 00:06:00,73.9,72.0,30.08,West,265,0.0,-999.0,95,-99.99,,,0.00,0,weatherlink.com 1.10,2013-07-18 04:06:00,
2013-07-18 00:21:00,73.9,72.0,30.08,West,265,0.0,-999.0,95,-99.99,,,0.00,0,weatherlink.com 1.10,2013-07-18 04:21:00,
2013-07-18 00:36:00,73.8,72.0,30.08,West,265,0.0,-999.0,95,-99.99,,,0.00,0,weatherlink.com 1.10,2013-07-18 04:36:00,
2013-07-18 00:51:00,74.0,73.0,30.08,West,265,0.0,-999.0,95,-99.99,,,0.00,0,weatherlink.com 1.10,2013-07-18 04:51:00,
2013-07-18 01:06:00,74.1,73.0,30.07,West,265,0.0,-999.0,95,-99.99,,,0.00,0,weatherlink.com 1.10,2013-07-18 05:06:00,
2013-07-18 01:21:00,74.2,73.0,30.07,West,265,0.0,-999.0,95,-99.99,,,0.00,0,weatherlink.com 1.10,2013-07-18 05:21:00,
2013-07-18 01:36:00,74.2,73.0,30.07,West,265,0.0,-999.0,95,-99.99,,,0.00,0,weatherlink.com 1.10,2013-07-18 05:36:00,
2013-07-18 01:51:00,74.1,73.0,30.07,West,265,0.0,-999.0,95,-99.99,,,0.00,0,weatherlink.com 1.10,2013-07-18 05:51:00,
2013-07-18 02:06:00,74.2,73.0,30.07,West,265,0.0,-999.0,95,-99.99,,,0.00,0,weatherlink.com 1.10,2013-07-18 06:06:00,
2013-07-18 02:21:00,74.2,73.0,30.06,West,265,0.0,-999.0,95,-99.99,,,0.00,0,weatherlink.com 1.10,2013-07-18 06:21:00,
2013-07-18 02:36:00,74.2,73.0,30.07,West,265,0.0,-999.0,95,-99.99,,,0.00,0,weatherlink.com 1.10,2013-07-18 06:36:00,
2013-07-18 02:51:00,74.1,73.0,30.06,West,265,0.0,-999.0,95,-99.99,,,0.00,0,weatherlink.com 1.10,2013-07-18 06:51:00,
2013-07-18 03:06:00,74.0,73.0,30.05,West,265,0.0,-999.0,95,-99.99,,,0.00,0,weatherlink.com 1.10,2013-07-18 07:06:00,
2013-07-18 03:21:00,73.8,73.0,30.06,West,265,0.0,-999.0,96,-99.99,,,0.00,0,weatherlink.com 1.10,2013-07-18 07:21:00,
2013-07-18 03:36:00,73.5,72.0,30.05,West,265,0.0,-999.0,95,-99.99,,,0.00,0,weatherlink.com 1.10,2013-07-18 07:36:00,
2013-07-18 03:51:00,73.4,72.0,30.05,West,265,0.0,-999.0,96,-99.99,,,0.00,0,weatherlink.com 1.10,2013-07-18 07:51:00,
2013-07-18 04:06:00,73.6,72.0,30.05,West,265,0.0,-999.0,96,-99.99,,,0.00,0,weatherlink.com 1.10,2013-07-18 08:06:00,
2013-07-18 04:21:00,73.7,73.0,30.05,West,265,0.0,-999.0,96,-99.99,,,0.00,0,weatherlink.com 1.10,2013-07-18 08:21:00,
2013-07-18 04:36:00,73.5,72.0,30.05,West,265,0.0,-999.0,96,-99.99,,,0.00,0,weatherlink.com 1.10,2013-07-18 08:36:00,
2013-07-18 04:51:00,73.2,72.0,30.06,West,265,0.0,-999.0,96,-99.99,,,0.00,0,weatherlink.com 1.10,2013-07-18 08:51:00,
2013-07-18 05:06:00,73.0,72.0,30.05,West,265,0.0,-999.0,96,-99.99,,,0.00,0,weatherlink.com 1.10,2013-07-18 09:06:00,
2013-07-18 05:21:00,72.9,72.0,30.05,West,265,0.0,-999.0,96,-99.99,,,0.00,0,weatherlink.com 1.10,2013-07-18 09:21:00,
2013-07-18 05:36:00,72.8,72.0,30.06,West,265,0.0,-999.0,96,-99.99,,,0.00,0,weatherlink.com 1.10,2013-07-18 09:36:00,
2013-07-18 05:51:00,72.7,72.0,30.06,West,265,0.0,-999.0,96,-99.99,,,0.00,0,weatherlink.com 1.10,2013-07-18 09:51:00,
2013-07-18 06:06:00,72.6,71.0,30.07,West,265,0.0,-999.0,96,-99.99,,,0.00,0,weatherlink.com 1.10,2013-07-18 10:06:00,
2013-07-18 06:21:00,72.8,72.0,30.07,West,265,0.0,-999.0,96,-99.99,,,0.00,0,weatherlink.com 1.10,2013-07-18 10:21:00,
2013-07-18 06:36:00,73.0,72.0,30.07,West,265,0.0,-999.0,96,-99.99,,,0.00,0,weatherlink.com 1.10,2013-07-18 10:36:00,
2013-07-18 06:52:00,73.2,72.0,30.08,West,265,0.0,-999.0,96,-99.99,,,0.00,0,weatherlink.com 1.10,2013-07-18 10:52:00,
2013-07-18 07:07:00,74.0,73.0,30.08,West,265,0.0,-999.0,96,-99.99,,,0.00,12,weatherlink.com 1.10,2013-07-18 11:07:00,
2013-07-18 07:22:00,74.2,73.0,30.08,West,265,0.0,-999.0,96,-99.99,,,0.00,23,weatherlink.com 1.10,2013-07-18 11:22:00,
2013-07-18 07:37:00,74.5,73.0,30.08,ENE,65,0.0,-999.0,96,-99.99,,,0.00,33,weatherlink.com 1.10,2013-07-18 11:37:00,
2013-07-18 07:52:00,74.8,74.0,30.09,ENE,74,1.0,-999.0,96,-99.99,,,0.00,32,weatherlink.com 1.10,2013-07-18 11:52:00,
2013-07-18 08:07:00,74.6,73.0,30.09,East,90,4.0,-999.0,96,-99.99,,,0.01,25,weatherlink.com 1.10,2013-07-18 12:07:00,
2013-07-18 08:22:00,74.0,73.0,30.09,East,85,3.0,-999.0,95,-99.99,,,0.01,30,weatherlink.com 1.10,2013-07-18 12:22:00,
2013-07-18 08:37:00,74.2,73.0,30.11,ESE,107,0.0,-999.0,95,-99.99,,,0.01,21,weatherlink.com 1.10,2013-07-18 12:37:00,
2013-07-18 08:52:00,73.9,72.0,30.11,ESE,107,0.0,-999.0,95,-99.99,,,0.01,28,weatherlink.com 1.10,2013-07-18 12:52:00,
2013-07-18 09:07:00,73.8,72.0,30.11,ESE,107,0.0,-999.0,95,-99.99,,,0.01,37,weatherlink.com 1.10,2013-07-18 13:07:00,
2013-07-18 09:22:00,73.7,72.0,30.12,ESE,107,0.0,-999.0,95,-99.99,,,0.01,23,weatherlink.com 1.10,2013-07-18 13:22:00,
2013-07-18 09:37:00,73.8,72.0,30.11,ESE,107,0.0,-999.0,95,-99.99,,,0.01,19,weatherlink.com 1.10,2013-07-18 13:37:00,
2013-07-18 09:52:00,73.5,72.0,30.12,ESE,107,0.0,-999.0,95,-99.99,,,0.01,14,weatherlink.com 1.10,2013-07-18 13:52:00,
2013-07-18 10:07:00,73.3,72.0,30.13,ESE,107,0.0,-999.0,95,-99.99,,,0.01,12,weatherlink.com 1.10,2013-07-18 14:07:00,
2013-07-18 10:22:00,73.1,72.0,30.12,ESE,107,0.0,-999.0,95,-99.99,,,0.01,12,weatherlink.com 1.10,2013-07-18 14:22:00,
2013-07-18 10:37:00,73.1,72.0,30.12,ESE,107,0.0,-999.0,95,-99.99,,,0.01,21,weatherlink.com 1.10,2013-07-18 14:37:00,
2013-07-18 10:52:00,73.3,72.0,30.11,ESE,107,0.0,-999.0,95,-99.99,,,0.01,37,weatherlink.com 1.10,2013-07-18 14:52:00,
2013-07-18 11:07:00,73.4,72.0,30.11,ESE,107,0.0,-999.0,95,-99.99,,,0.01,67,weatherlink.com 1.10,2013-07-18 15:07:00,
2013-07-18 11:22:00,73.9,72.0,30.11,ESE,107,0.0,-999.0,95,-99.99,,,0.01,102,weatherlink.com 1.10,2013-07-18 15:22:00,
2013-07-18 11:37:00,74.8,74.0,30.12,ESE,107,0.0,-999.0,96,-99.99,,,0.01,216,weatherlink.com 1.10,2013-07-18 15:37:00,
2013-07-18 11:52:00,76.7,76.0,30.12,ESE,107,0.0,-999.0,96,-99.99,,,0.01,246,weatherlink.com 1.10,2013-07-18 15:52:00,
2013-07-18 12:07:00,76.4,75.0,30.12,East,101,0.0,-999.0,96,-99.99,,,0.01,216,weatherlink.com 1.10,2013-07-18 16:07:00,
2013-07-18 12:22:00,75.8,74.0,30.11,ESE,111,0.0,-999.0,95,-99.99,,,0.01,200,weatherlink.com 1.10,2013-07-18 16:22:00,
2013-07-18 12:37:00,75.9,74.0,30.11,ESE,111,0.0,-999.0,94,-99.99,,,0.01,225,weatherlink.com 1.10,2013-07-18 16:37:00,
2013-07-18 12:52:00,76.5,74.0,30.12,ESE,111,0.0,-999.0,93,-99.99,,,0.01,272,weatherlink.com 1.10,2013-07-18 16:52:00,
2013-07-18 13:07:00,77.5,75.0,30.11,ESE,107,0.0,-999.0,91,-99.99,,,0.01,257,weatherlink.com 1.10,2013-07-18 17:07:00,
2013-07-18 13:22:00,78.1,74.0,30.11,ESE,105,0.0,-999.0,87,-99.99,,,0.01,332,weatherlink.com 1.10,2013-07-18 17:22:00,
2013-07-18 13:37:00,79.8,75.0,30.11,ESE,113,1.0,-999.0,86,-99.99,,,0.01,823,weatherlink.com 1.10,2013-07-18 17:37:00,
2013-07-18 13:52:00,80.7,75.0,30.10,East,100,1.0,-999.0,83,-99.99,,,0.01,373,weatherlink.com 1.10,2013-07-18 17:52:00,
2013-07-18 14:07:00,80.6,75.0,30.09,East,92,2.0,-999.0,84,-99.99,,,0.01,369,weatherlink.com 1.10,2013-07-18 18:07:00,
2013-07-18 14:23:00,81.1,77.0,30.09,NE,55,3.0,-999.0,86,-99.99,,,0.01,784,weatherlink.com 1.10,2013-07-18 18:23:00,
2013-07-18 14:38:00,83.7,79.0,30.09,ENE,72,4.0,-999.0,86,-99.99,,,0.01,475,weatherlink.com 1.10,2013-07-18 18:38:00,
2013-07-18 14:53:00,82.9,78.0,30.08,ESE,105,0.0,-999.0,85,-99.99,,,0.01,761,weatherlink.com 1.10,2013-07-18 18:53:00,
2013-07-18 15:08:00,83.4,79.0,30.08,ESE,122,0.0,-999.0,85,-99.99,,,0.01,738,weatherlink.com 1.10,2013-07-18 19:08:00,
2013-07-18 15:23:00,83.8,78.0,30.08,ENE,61,3.0,-999.0,83,-99.99,,,0.01,283,weatherlink.com 1.10,2013-07-18 19:23:00,
2013-07-18 15:38:00,83.0,78.0,30.08,ESE,108,0.0,-999.0,85,-99.99,,,0.01,362,weatherlink.com 1.10,2013-07-18 19:38:00,
2013-07-18 15:53:00,82.9,78.0,30.07,ESE,119,0.0,-999.0,86,-99.99,,,0.01,248,weatherlink.com 1.10,2013-07-18 19:53:00,
2013-07-18 16:08:00,82.5,78.0,30.08,ENE,63,0.0,-999.0,86,-99.99,,,0.01,160,weatherlink.com 1.10,2013-07-18 20:08:00,
2013-07-18 16:23:00,82.3,78.0,30.07,East,91,0.0,-999.0,86,-99.99,,,0.01,232,weatherlink.com 1.10,2013-07-18 20:23:00,
2013-07-18 16:38:00,82.7,78.0,30.06,East,88,0.0,-999.0,86,-99.99,,,0.01,248,weatherlink.com 1.10,2013-07-18 20:38:00,
2013-07-18 16:53:00,82.8,78.0,30.06,ENE,67,1.0,-999.0,85,-99.99,,,0.01,206,weatherlink.com 1.10,2013-07-18 20:53:00,
2013-07-18 17:08:00,78.5,72.0,30.07,WSW,246,5.0,-999.0,79,-99.99,,,0.01,7,weatherlink.com 1.10,2013-07-18 21:08:00,
2013-07-18 17:23:00,74.0,70.0,30.08,WNW,291,0.0,-999.0,88,-99.99,,,0.01,11,weatherlink.com 1.10,2013-07-18 21:23:00,
2013-07-18 17:38:00,73.1,70.0,30.08,NW,320,0.0,-999.0,91,-99.99,,,0.01,19,weatherlink.com 1.10,2013-07-18 21:38:00,
2013-07-18 17:53:00,72.5,70.0,30.08,WNW,300,2.0,-999.0,93,-99.99,,,0.01,19,weatherlink.com 1.10,2013-07-18 21:53:00,
2013-07-18 18:08:00,72.0,70.0,30.09,WNW,292,0.0,-999.0,93,-99.99,,,0.01,9,weatherlink.com 1.10,2013-07-18 22:08:00,
2013-07-18 18:23:00,72.1,70.0,30.09,WNW,292,0.0,-999.0,94,-99.99,,,0.01,0,weatherlink.com 1.10,2013-07-18 22:23:00,
2013-07-18 18:38:00,72.2,70.0,30.11,WNW,292,0.0,-999.0,94,-99.99,,,0.01,0,weatherlink.com 1.10,2013-07-18 22:38:00,
2013-07-18 18:53:00,72.1,70.0,30.09,WNW,293,0.0,-999.0,94,-99.99,,,0.01,0,weatherlink.com 1.10,2013-07-18 22:53:00,
2013-07-18 19:08:00,72.1,71.0,30.08,ENE,59,0.0,-999.0,95,-99.99,,,0.01,0,weatherlink.com 1.10,2013-07-18 23:08:00,
2013-07-18 19:23:00,72.0,71.0,30.09,ENE,59,0.0,-999.0,95,-99.99,,,0.01,0,weatherlink.com 1.10,2013-07-18 23:23:00,
2013-07-18 19:38:00,72.1,71.0,30.09,ENE,59,0.0,-999.0,95,-99.99,,,0.01,0,weatherlink.com 1.10,2013-07-18 23:38:00,
2013-07-18 19:53:00,72.3,71.0,30.09,ENE,59,0.0,-999.0,95,-99.99,,,0.01,0,weatherlink.com 1.10,2013-07-18 23:53:00,
2013-07-18 20:08:00,72.4,71.0,30.10,ENE,59,0.0,-999.0,96,-99.99,,,0.01,0,weatherlink.com 1.10,2013-07-19 00:08:00,
2013-07-18 20:23:00,72.6,71.0,30.11,ENE,59,0.0,-999.0,96,-99.99,,,0.01,0,weatherlink.com 1.10,2013-07-19 00:23:00,
2013-07-18 20:38:00,72.8,72.0,30.11,ENE,59,1.0,-999.0,96,-99.99,,,0.01,0,weatherlink.com 1.10,2013-07-19 00:38:00,
2013-07-18 20:53:00,72.9,72.0,30.10,ENE,58,0.0,-999.0,96,-99.99,,,0.01,0,weatherlink.com 1.10,2013-07-19 00:53:00,
2013-07-18 21:08:00,72.9,72.0,30.09,ENE,57,0.0,-999.0,96,-99.99,,,0.01,0,weatherlink.com 1.10,2013-07-19 01:08:00,
2013-07-18 21:23:00,72.9,72.0,30.08,ENE,57,1.0,-999.0,96,-99.99,,,0.01,0,weatherlink.com 1.10,2013-07-19 01:23:00,
2013-07-18 21:38:00,73.0,72.0,30.07,ENE,57,0.0,-999.0,96,-99.99,,,0.01,0,weatherlink.com 1.10,2013-07-19 01:38:00,
2013-07-18 21:53:00,72.9,72.0,30.07,ENE,57,0.0,-999.0,96,-99.99,,,0.01,0,weatherlink.com 1.10,2013-07-19 01:53:00,
2013-07-18 22:08:00,72.8,72.0,30.08,ENE,57,0.0,-999.0,96,-99.99,,,0.01,0,weatherlink.com 1.10,2013-07-19 02:08:00,
2013-07-18 22:23:00,72.7,72.0,30.08,ENE,57,0.0,-999.0,96,-99.99,,,0.01,0,weatherlink.com 1.10,2013-07-19 02:23:00,
2013-07-18 22:38:00,72.7,72.0,30.08,ENE,57,0.0,-999.0,96,-99.99,,,0.01,0,weatherlink.com 1.10,2013-07-19 02:38:00,
2013-07-18 22:53:00,72.6,71.0,30.08,ENE,57,0.0,-999.0,96,-99.99,,,0.01,0,weatherlink.com 1.10,2013-07-19 02:53:00,
2013-07-18 23:08:00,72.7,72.0,30.08,ENE,57,0.0,-999.0,96,-99.99,,,0.01,0,weatherlink.com 1.10,2013-07-19 03:08:00,
2013-07-18 23:23:00,72.8,72.0,30.09,ENE,57,0.0,-999.0,96,-99.99,,,0.01,0,weatherlink.com 1.10,2013-07-19 03:23:00,
2013-07-18 23:38:00,72.8,72.0,30.09,ENE,57,0.0,-999.0,96,-99.99,,,0.01,0,weatherlink.com 1.10,2013-07-19 03:38:00,
2013-07-18 23:53:00,72.8,72.0,30.09,ENE,57,0.0,-999.0,96,-99.99,,,0.00,0,weatherlink.com 1.10,2013-07-19 03:53:00,